Regional Weather Roundup
Issued by NWS Columbia, SC

Current Version | Previous Version | Text Only | Print | Product List | Glossary On
Versions: 1 2 3 4 5 6 7 8 9 10 11 12 13 14 15 16 17 18 19 20 21 22 23 24 25 26 27 28 29 30 31 32 33 34 35 36 37 38 39 40 41 42 43 44 45 46 47 48 49 50
000
ASUS42 KCAE 070310
RWRCAE
REGIONAL WEATHER ROUNDUP
NATIONAL WEATHER SERVICE COLUMBIA SC
1000 PM EST SAT FEB 06 2016

NOTE: "FAIR" INDICATES FEW OR NO CLOUDS BELOW 12,000 FEET WITH NO
SIGNIFICANT WEATHER AND/OR OBSTRUCTIONS TO VISIBILITY.

NOT ALL STATIONS ARE QUALITY CONTROLLED BY THE NATIONAL
WEATHER SERVICE. USE DATA WITH CAUTION...ESPECIALLY
DEWPOINT OBSERVATIONS.

SCZ001>056-GAZ040-063>065-077-070400-
...UPSTATE SOUTH CAROLINA...

CITY           SKY/WX    TMP DP  RH WIND       PRES   REMARKS
ANDERSON       CLOUDY    43  19  38 N3        30.22F
LIBERTY        CLOUDY    41  22  46 NE5       30.21F
SPARTANBURG    CLOUDY    43  18  36 CALM      30.23S
CLEMSON        CLEAR     42  22  44 N3        30.23F
GREENVILLE     CLOUDY    44  17  33 N5        30.24S
GREENWOOD      CLOUDY    44  23  43 NE3       30.23F
GREER          CLOUDY    43  21  41 CALM      30.23S
ROCK HILL      CLOUDY    44  21  40 N3        30.24F
LAURENS        CLOUDY    43  27  52 NE5       30.22F


...CENTRAL SOUTH CAROLINA...

CITY           SKY/WX    TMP DP  RH WIND       PRES   REMARKS
COLUMBIA APT   CLOUDY    49  24  37 E5        30.23R
COLUMBIA OWENS CLOUDY    48  26  42 CALM      30.24R
MCENTIRE ANGB  CLOUDY    44  31  62 N5        30.23R
ORANGEBURG     CLOUDY    44  32  62 NE8       30.20F
SUMTER SHAW    LGT RAIN  45  32  61 NE7       30.18F
NEWBERRY       PTCLDY    43  27  52 N5        30.25F
AIKEN          LGT RAIN  41  32  70 CALM      30.25F
BARNWELL       DRIZZLE   43  37  81 N6        30.22F
MANNING        RAIN      41  34  75 N5        30.21F
CAMDEN         CLOUDY    45  45 100 CALM      30.23R
LANCASTER      PTCLDY    45  19  36 CALM      30.25R
WINNSBORO      CLOUDY    43  27  52 N5        30.22S


...EASTERN AND COASTAL SOUTH CAROLINA...

CITY           SKY/WX    TMP DP  RH WIND       PRES   REMARKS
MYRTLE BEACH   LGT RAIN  43  28  56 N12       30.23R
N MYRTLE BCH   RAIN      42  33  70 N7        30.21R
CONWAY         RAIN      39  34  81 N6        30.22S WCI  35
MARION         LGT RAIN  43  32  65 N6        30.23S
HARTSVILLE     CLOUDY    45  27  49 E6        30.21F
FLORENCE       CLOUDY    42  34  73 E8        30.22F
DARLINGTON     CLOUDY    45  27  49 NE7       30.24F
CHARLESTON APT RAIN      41  36  82 N16G22    30.19R
MOUNT PLEASANT CLOUDY    41  39  93 N7G16     30.19R
WALTERBORO     LGT RAIN  43  39  87 NE9       30.19F
BEAUFORT       RAIN      42  38  85 N18       30.16F


...EASTERN GEORGIA...

CITY           SKY/WX    TMP DP  RH WIND       PRES   REMARKS
AUGUSTA BUSH F CLOUDY    42  39  89 NW3       30.22F
AUGUSTA DANIEL CLOUDY    44  32  62 E3        30.22F
THOMSON        CLOUDY    48  33  56 NE3       30.25S
WASHINGTON     FAIR      45  32  61 CALM      30.20F
CLAXTON        DRIZZLE   42  40  95 N5        30.18F
SYLVANIA       CLOUDY    42  39  89 NE7       30.21S
STATESBORO     DRIZZLE   44  37  76 N7        30.18F
SAVANNAH       LGT RAIN  41  37  86 N15G23    30.15F


...SOUTHERN NORTH CAROLINA...

CITY           SKY/WX    TMP DP  RH WIND       PRES   REMARKS
CHARLOTTE      CLOUDY    43  17  35 N5        30.24F
MONROE         CLOUDY    43  21  41 NE7       30.22F
WADESBORO      CLOUDY    42  29  59 CALM      30.24F
ROCKINGHAM     CLOUDY    43  25  49 CALM      30.24F
RUTHERFORDTON  CLOUDY    37  20  50 N3        30.25F
ASHEVILLE      CLEAR     34  11  38 N6        30.22F WCI  29

$$



USA.gov is the U.S. government's official web portal to all federal, state and local government web resources and services.